User: anonymous   Login
Location: Unspecified
(0.0000°N, 0.0000°E)
Time: 05:21:16
(UTC+00:00)
Language:

TBA - TO BE ASSIGNED - Orbit

View from above orbital plane
View from above orbital plane
View from above satellite
View from above satellite

Ground track
Ground track

The orbit is defined by the following mean orbital elements,

1 67980U          26145.49966102 +.00000000 +00000-0 -21989-3 0 00001
2 67980  97.2831 155.5685 0000695  65.9950 294.1365 15.33458427    03
Epoch (UTC): 25 May 2026 11:59:30
Eccentricity: 0.0000695
inclination: 97.2831°
perigee height: 465 km
apogee height: 466 km
right ascension of ascending node: 155.5685°
argument of perigee: 65.9950°
revolutions per day: 15.33458427
mean anomaly at epoch: 294.1365°

The dashed part of the orbit path shows where the satellite is in the earth's shadow,  

DLR